Regional Weather Roundup
Issued by NWS

Home | Current Version | Previous Version | Text Only | Print | Product List | Glossary On
Versions: 1 2 3 4 5 6 7 8 9 10 11 12 13 14 15 16 17 18 19 20 21 22 23 24 25 26 27 28 29 30 31 32 33 34 35 36 37 38 39 40 41 42 43 44 45 46 47 48 49 50
000
ASUS43 KLMK 220510
RWRKY
KENTUCKY REGIONAL WEATHER ROUNDUP
NATIONAL WEATHER SERVICE LOUISVILLE KY
100 AM EDT MON SEP 22 2014

NOTE "FAIR" INDICATES FEW OR NO CLOUDS BELOW 12,000 FEET
WITH NO SIGNIFICANT WEATHER AND/OR OBSTRUCTIONS TO VISIBILITY.

KYZ001>023-026-027-061>063-070>075-220600-
WESTERN AND SOUTH CENTRAL KENTUCKY

CITY           SKY/WX    TMP DP  RH WIND       PRES   REMARKS
PADUCAH        CLEAR     65  51  60 N7        30.11R
HENDERSON      CLEAR     61  48  63 N5        30.11S
OWENSBORO      CLEAR     61  50  67 N5        30.10S
HOPKINSVILLE   CLEAR     60  51  70 N8        30.09R
BOWLING GREEN  CLEAR     62  49  62 CALM      30.08R
GLASGOW        CLEAR     59  50  73 N3        30.07S
$$

KYZ024-025-028>034-038-045-046-053-220600-
NORTH CENTRAL KENTUCKY

CITY           SKY/WX    TMP DP  RH WIND       PRES   REMARKS
LOUISVILLE/SDF CLEAR     61  50  67 N8        30.07S
LOUISVILLE/LOU CLEAR     60  50  69 N7        30.08S
FORT KNOX      CLEAR     54  50  85 NW5       30.07S
$$

KYZ035>037-039>044-047>052-055>060-089>105-220600-
NORTHEAST KENTUCKY

CITY           SKY/WX    TMP DP  RH WIND       PRES   REMARKS
LEXINGTON      CLEAR     57  49  74 N6        30.06S
COVINGTON      CLEAR     56  48  74 NW9       30.07S
FRANKFORT      CLEAR     57  48  72 N7        30.06S
$$

KYZ054-064>069-076>088-106>120-220600-
SOUTHEAST KENTUCKY

CITY           SKY/WX    TMP DP  RH WIND       PRES   REMARKS
JACKSON        CLEAR     60  48  64 VRB3      30.04R
LONDON         CLEAR     61  49  64 N6        30.06R
SOMERSET       CLEAR     59  48  67 N5        30.07S
MIDDLESBORO    CLEAR     58  53  83 CALM      30.05R
MONTICELLO     CLEAR     59  52  77 N6        30.08R
$$



USA.gov is the U.S. government's official web portal to all federal, state and local government web resources and services.